Lexington Weather

Lexington, Massachusetts, USA

45°F
4/22/2024 9:25am 
  • Lexington Conditions: Clear
  • Temperature: 44.6°F / 7.0°CWarmer 2.3°F than last hour.
  • Dew Point: 25.7°FDecreased 1.6°Fsince last hour.
  • Relative Humidity: 47%Decreased 8.0% since last hour.
  • Wind: Calm, 10-min avg: Calm, gust: 6 mph
  • Barometer: 29.96 in Steady
  • Visibility: 10 miles
  • Rain Today: 0.00 in
  •   

Regional Weather Roundup
for Boston, MA

        
000
ASUS41 KBOX 151710
RWRBOX

REGIONAL WEATHER ROUNDUP
NATIONAL WEATHER SERVICE BOSTON/NORTON MA
100 PM EDT MON APR 15 2024

NOTE:  "FAIR" INDICATES FEW OR NO CLOUDS BELOW 12,000 FEET WITH NO 
SIGNIFICANT WEATHER AND/OR OBSTRUCTIONS TO VISIBILITY.

MAZALL-151800-
EASTERN MASSACHUSETTS
  
CITY           SKY/WX    TMP DP  RH WIND       PRES   REMARKS
BOSTON         FAIR      67  48  50 W6        29.76F                  
BEVERLY        PTSUNNY   64  46  52 SW7G22    29.75F                  
LAWRENCE       PTSUNNY   68  44  42 W14G23    29.77F                  
BEDFORD        FAIR      68  47  46 W13G40    29.75F                  
NORWOOD        FAIR      71  47  42 SW10G22   29.75F                  
MARSHFIELD     FAIR      61  46  59 E10       29.78S                  
PLYMOUTH       FAIR      70  47  43 W17G24    29.77F                  
TAUNTON        FAIR      71  47  42 SW10      29.77F                  
NEW BEDFORD    FAIR      71  48  43 SW9       29.77F                  
$$

MAZALL-151800-
CAPE COD AND THE ISLANDS
  
CITY           SKY/WX    TMP DP  RH WIND       PRES   REMARKS
FALMOUTH       SUNNY     66  46  48 W7        29.79F                  
HYANNIS        FAIR      62  47  57 S9        29.78F                  
CHATHAM        FAIR      64  48  56 MISG      29.80F                  
PROVINCETOWN   FAIR      62  49  62 VRB3      29.80F                  
NANTUCKET      CLOUDY    56  48  74 SW9       29.82F                  
MARTHAS VNYRD  FAIR      69  48  47 VRB6      29.79F                  
$$
 
MAZALL-151800-
CENTRAL AND WESTERN MASSACHUSETTS
  
CITY           SKY/WX    TMP DP  RH WIND       PRES   REMARKS
WORCESTER      FAIR      66  40  38 W17       29.78F                  
FITCHBURG      FAIR     N/A N/A N/A W15G24    29.78F                  
ORANGE         FAIR      64  44  48 W10G20    29.80R                  
SPRINGFIELD    MOSUNNY   70  46  42 W12       29.75F                  
WESTFIELD      FAIR      71  38  29 W18G29    29.78S                  
NORTH ADAMS    PTSUNNY   59  44  57 W14G26    29.84R                  
PITTSFIELD     CLOUDY    59  46  62 W16G25    29.82R                  
$$
 
RIZALL-151800-
RHODE ISLAND
  
CITY           SKY/WX    TMP DP  RH WIND       PRES   REMARKS
PROVIDENCE     FAIR      69  50  50 SE10      29.77F                  
NEWPORT        FAIR      66  49  54 S8        29.78F                  
BLOCK ISLAND   FAIR      60  49  66 S10       29.82S                  
SMITHFIELD     FAIR      71  45  39 W10G17    29.77F                  
WESTERLY       FAIR      64  50  60 S13       29.79F                  
$$
 
CTZALL-151800-
CONNECTICUT
  
CITY           SKY/WX    TMP DP  RH WIND       PRES   REMARKS
BRADLEY INTL   PTSUNNY   73  41  31 NW13G23   29.78S                  
HARTFORD       FAIR      74  39  28 W15G24    29.78S                  
PLAINVILLE     FAIR      73  38  28 W10G20    29.79S                  
BRIDGEPORT     FAIR      70  48  45 SW10      29.79F                  
DANBURY        FAIR      74  41  30 SW9G24    29.81F                  
GROTON         FAIR      60  52  74 S10       29.79F                  
NEW HAVEN      FAIR      66  54  65 S9        29.80F                  
CHESTER        FAIR      75  37  25 W9G22     29.79S                  
MERIDEN        FAIR      74  34  23 NW14G26   29.79S                  
WILLIMANTIC    FAIR      71  40  32 W13G22    29.80S                  
OXFORD         FAIR      71  36  27 W8G18     29.82S                  
$$

MEZ002-015-021-024-NHZ003-005-008-011-012-014-VTZ005-008-151800-
NORTHERN NEW ENGLAND
  
CITY           SKY/WX    TMP DP  RH WIND       PRES   REMARKS
PORTLAND ME    PTSUNNY   56  45  66 S7        29.76R                  
BANGOR ME      PTSUNNY   57  41  55 W9G20     29.74S                  
CONCORD NH     PTSUNNY   66  41  40 W8G21     29.76S                  
MANCHESTER NH  PTSUNNY   68  38  33 W16G26    29.75F                  
NASHUA NH      PTSUNNY   66  42  41 W14G20    29.77F                  
PORTSMOUTH NH  PTSUNNY   67  41  38 W12       29.74F                  
JAFFREY NH     PTSUNNY   62  41  46 NW8G20    29.79S                  
KEENE NH       FAIR      63  39  41 W13G23    29.78S                  
BURLINGTON VT  CLOUDY    49  43  80 CALM      29.84S                  
MT. WASHINGTON FOG       28  28 100 W33         N/A  VSB 0   WCI  12  
$$

NYZ052-076-151800-
EASTERN NEW YORK
  
CITY           SKY/WX    TMP DP  RH WIND       PRES   REMARKS
ALBANY         PTSUNNY   62  41  46 W16G26    29.87S                  
NEW YORK CITY  FAIR      78  38  23 W15G21    29.80F                  
$$
 
ANZALL-151800-
MARINE OBSERVATIONS
  
STATION/POSITION TIME  TEMP    WIND        PRES    VSBY  WAVE
                       AIR SEA DIR/SP/G                  HT/PER
                 (UTC) (F)     (DEG/KT/KT) (MB)    (MI)  (FT/S)
BOSTON BUOY      1650   49     140/  4/  6 1008.5F         3/11
BUZZARDS BAY     1600   58     260/  3/  3 1009.9
NANTUCKET SOUND  1640   52 46  250/  4/  6 1009.0F
MASS BAY-STELLWA 1504   50 45  200/  6/  8 1009.3F  1 7/8  4/11
ISLE OF SHOALS   1600   52     160/ 17/ 17 1007.5F
S OF BLOCK IS    1656      46                N/A           6/ 8
$$

......................KEY.........................
  SKY/WX - SKY CONDITION/PRESENT WEATHER
  TMP    - TEMPERATURE IN FAHRENHEIT
  DWPT   - DEWPOINT IN FAHRENHEIT
  RH     - RELATIVE HUMIDITY IN PERCENT
  WIND   - DIRECTION AND SPEED IN MPH
  PRES   - MEAN SEA LEVEL PRESSURE IN INCHES OF HG
  WCI    - WIND CHILL INDEX
  VSB    - VISIBILITY IN MILES
  HX     - HEAT INDEX
  TC     - TEMPERATURE IN CELSIUS
  VRB    - VARIABLE WIND DIRECTION
  N/A    - NOT AVAILABLE
  
      

Other recent Regional Weather Roundups

Mon Apr 22, 9:10am EDT

Mon Apr 22, 8:10am EDT

Mon Apr 22, 7:10am EDT

Mon Apr 22, 6:10am EDT

Mon Apr 22, 5:10am EDT

Mon Apr 22, 4:10am EDT

Mon Apr 22, 3:10am EDT

Mon Apr 22, 2:10am EDT

Mon Apr 22, 1:10am EDT

Mon Apr 22, 12:10am EDT

Sun Apr 21, 11:10pm EDT

Sun Apr 21, 10:10pm EDT

Sun Apr 21, 9:10pm EDT

Sun Apr 21, 8:10pm EDT

Sun Apr 21, 7:10pm EDT

Sun Apr 21, 6:10pm EDT

Sun Apr 21, 5:10pm EDT

Sun Apr 21, 4:10pm EDT

Sun Apr 21, 3:10pm EDT

Sun Apr 21, 2:10pm EDT

Sun Apr 21, 1:10pm EDT

Sun Apr 21, 12:10pm EDT

Sun Apr 21, 11:10am EDT

Sun Apr 21, 10:10am EDT

Sun Apr 21, 9:10am EDT

Sun Apr 21, 8:10am EDT

Sun Apr 21, 7:10am EDT

Sun Apr 21, 6:10am EDT

Sun Apr 21, 5:10am EDT

Sun Apr 21, 4:10am EDT

Sun Apr 21, 3:10am EDT

Sun Apr 21, 2:10am EDT

Sun Apr 21, 1:10am EDT

Sun Apr 21, 12:10am EDT

Sat Apr 20, 11:10pm EDT

Sat Apr 20, 10:10pm EDT

Sat Apr 20, 9:10pm EDT

Sat Apr 20, 8:10pm EDT

Sat Apr 20, 7:10pm EDT

Sat Apr 20, 6:10pm EDT

Sat Apr 20, 5:10pm EDT

Sat Apr 20, 4:10pm EDT

Sat Apr 20, 3:10pm EDT

Sat Apr 20, 2:10pm EDT

Sat Apr 20, 1:10pm EDT

Sat Apr 20, 12:10pm EDT

Sat Apr 20, 11:10am EDT

Sat Apr 20, 10:10am EDT

Sat Apr 20, 9:10am EDT

Sat Apr 20, 8:10am EDT

Sat Apr 20, 7:10am EDT

Sat Apr 20, 6:10am EDT

Sat Apr 20, 5:10am EDT

Sat Apr 20, 4:10am EDT

Sat Apr 20, 3:10am EDT

Sat Apr 20, 2:10am EDT

Sat Apr 20, 1:10am EDT

Sat Apr 20, 12:10am EDT

Fri Apr 19, 11:10pm EDT

Fri Apr 19, 10:10pm EDT

Fri Apr 19, 9:10pm EDT

Fri Apr 19, 8:10pm EDT

Fri Apr 19, 7:10pm EDT

Fri Apr 19, 6:10pm EDT

Fri Apr 19, 5:10pm EDT

Fri Apr 19, 4:10pm EDT

Fri Apr 19, 3:10pm EDT

Fri Apr 19, 2:10pm EDT

Fri Apr 19, 1:10pm EDT

Fri Apr 19, 12:10pm EDT

Fri Apr 19, 11:10am EDT

Fri Apr 19, 10:10am EDT

Fri Apr 19, 9:10am EDT

Fri Apr 19, 8:10am EDT

Fri Apr 19, 7:10am EDT

Fri Apr 19, 6:10am EDT

Fri Apr 19, 5:10am EDT

Fri Apr 19, 4:10am EDT

Fri Apr 19, 3:10am EDT

Fri Apr 19, 2:10am EDT

Fri Apr 19, 1:10am EDT

Fri Apr 19, 12:10am EDT

Thu Apr 18, 11:10pm EDT

Thu Apr 18, 10:10pm EDT

Thu Apr 18, 9:10pm EDT

Thu Apr 18, 8:10pm EDT

Thu Apr 18, 7:10pm EDT

Thu Apr 18, 6:10pm EDT

Thu Apr 18, 5:10pm EDT

Thu Apr 18, 4:10pm EDT

Thu Apr 18, 3:10pm EDT

Thu Apr 18, 2:10pm EDT

Thu Apr 18, 1:10pm EDT

Thu Apr 18, 12:10pm EDT

Thu Apr 18, 11:10am EDT

Thu Apr 18, 10:10am EDT

Thu Apr 18, 9:10am EDT

Thu Apr 18, 8:10am EDT

Thu Apr 18, 7:10am EDT

Thu Apr 18, 6:10am EDT

Thu Apr 18, 5:10am EDT

Thu Apr 18, 4:10am EDT

Thu Apr 18, 3:10am EDT

Thu Apr 18, 2:10am EDT

Thu Apr 18, 1:10am EDT

Thu Apr 18, 12:10am EDT

Wed Apr 17, 11:10pm EDT

Wed Apr 17, 10:10pm EDT

Wed Apr 17, 9:10pm EDT

Wed Apr 17, 8:10pm EDT

Wed Apr 17, 7:10pm EDT

Wed Apr 17, 6:10pm EDT

Wed Apr 17, 5:10pm EDT

Wed Apr 17, 4:10pm EDT

Wed Apr 17, 3:10pm EDT

Wed Apr 17, 2:10pm EDT

Wed Apr 17, 1:10pm EDT

Wed Apr 17, 12:10pm EDT

Wed Apr 17, 11:10am EDT

Wed Apr 17, 10:10am EDT

Wed Apr 17, 9:10am EDT

Wed Apr 17, 8:10am EDT

Wed Apr 17, 7:10am EDT

Wed Apr 17, 6:10am EDT

Wed Apr 17, 5:10am EDT

Wed Apr 17, 4:10am EDT

Wed Apr 17, 3:10am EDT

Wed Apr 17, 2:10am EDT

Wed Apr 17, 1:10am EDT

Wed Apr 17, 12:10am EDT

Tue Apr 16, 11:10pm EDT

Tue Apr 16, 10:10pm EDT

Tue Apr 16, 9:10pm EDT

Tue Apr 16, 8:10pm EDT

Tue Apr 16, 7:10pm EDT

Tue Apr 16, 6:10pm EDT

Tue Apr 16, 5:10pm EDT

Tue Apr 16, 4:10pm EDT

Tue Apr 16, 3:10pm EDT

Tue Apr 16, 2:10pm EDT

Tue Apr 16, 1:10pm EDT

Tue Apr 16, 12:10pm EDT

Tue Apr 16, 11:10am EDT

Tue Apr 16, 10:10am EDT

Tue Apr 16, 9:10am EDT

Tue Apr 16, 8:10am EDT

Tue Apr 16, 7:10am EDT

Tue Apr 16, 6:10am EDT

Tue Apr 16, 5:10am EDT

Tue Apr 16, 4:10am EDT

Tue Apr 16, 3:10am EDT

Tue Apr 16, 2:10am EDT

Tue Apr 16, 1:10am EDT

Tue Apr 16, 12:10am EDT

Mon Apr 15, 11:10pm EDT

Mon Apr 15, 10:10pm EDT

Mon Apr 15, 9:10pm EDT

Mon Apr 15, 8:10pm EDT

Mon Apr 15, 7:10pm EDT

Mon Apr 15, 6:10pm EDT

Mon Apr 15, 5:10pm EDT

Mon Apr 15, 4:10pm EDT

Mon Apr 15, 3:10pm EDT

Mon Apr 15, 2:10pm EDT

Mon Apr 15, 12:10pm EDT

Mon Apr 15, 11:10am EDT

Mon Apr 15, 10:10am EDT